Weather in Georgiy

Russia / Kostroma Oblast     59°01′13″N   42°48′17″E
temp.,
°C
wind,
m/s
gust,
m/s
humid.,
%
clouds,
%
prec.,
mm/h
press.,
hPa
HPBL,
m
22 january, sat
sat2200:00−10se41191100 0.0 1009591
03:00−9ese41093100 0.1 1009577
06:00−9ese41192100 0.3 1011531
09:00−11ese31094100 0.3 1013375
12:00−9ese3893100 0.1 1015393
15:00−9e3894100 0.1 1017356
18:00−11e389699 0.1 1019247
21:00−14e389888 0.1 1021152
23 january, sun
sun2300:00−17ene2310094 0.0 102244
03:00−17ene1310078 0.1 102343
06:00−12ne1296100 0.1 102470
09:00−11nw1196100 0.4 102572
12:00−9w2291100 0.4 1027235
15:00−9w2495100 0.4 1029209
18:00−16w119970 0.0 10329
21:00−19wsw1110086 0.0 103413
24 january, mon
mon2400:00−20wsw1110081 0.0 103617
03:00−19wsw2310095 0.0 103747
06:00−20sw2310097 0.0 103842
09:00−18sw2610085 0.0 103981
12:00−11sw379372 0.0 1037202
15:00−10sw399317 0.0 1037285
18:00−12sw3119547 0.0 1036227
21:00−13sw3119632 0.0 1035216
25 january, tue
tue2500:00−14sw3129652 0.0 1034240
03:00−13ssw3139567 0.0 1032274
06:00−14ssw3139565 0.0 1030263
09:00−14ssw3139560 0.0 1028289
12:00−9ssw41394100 0.0 1025392
15:00−8ssw4149031 0.0 1023505
18:00−10s4148920 0.0 1021389
21:00−11ssw41291100 0.0 1021360
26 january, wed
wed2600:00−13ssw31094100 0.0 1020266
03:00−12s3994100 0.0 1020286
06:00−15s269756 0.0 1020129
09:00−19s1210055 0.0 102230
12:00−12s139166 0.0 1021175
15:00−11se119565 0.0 102113
18:00−17ese11100100 0.0 10229
21:00−17ese1199100 0.0 102213